Weather History for Harvey, ND

Change the Weather History Date:

Saturday, March 30, 2013

  Actual Average (KRUG) Record (KRUG)
Temperature  
Mean Temperature 26 °F -  
Max Temperature 32 °F 43 °F 71 °F (1966)
Min Temperature 21 °F 21 °F -15 °F (1969)
Degree Days  
Heating Degree Days 38    
Moisture  
Dew Point 27 °F    
Average Humidity 98    
Maximum Humidity 100    
Minimum Humidity 80    
Precipitation  
Precipitation 0.02 in - - ()
Sea Level Pressure  
Sea Level Pressure 29.97 in    
Wind  
Wind Speed 10 mph (WNW)    
Max Wind Speed 23 mph    
Max Gust Speed 30 mph    
Visibility 4 miles    
Events Fog , Snow    
Averages and records for this station are not official NWS values.
T = Trace of Precipitation, MM = Missing Value Source: NWS Daily Summary

Daily Weather History Graph

Daily Weather History Graph

Search for Another Location

Airport:

Trip Planner

Search our weather history database for the weather conditions in past years. The results will help you decide how hot, cold, wet, or windy it might be!

Date:

Astronomy

Mar. 30, 2013 Rise Set
Actual Time 7:21 AM CDT 8:07 PM CDT
Civil Twilight 6:50 AM CDT 8:38 PM CDT
Nautical Twilight 6:13 AM CDT 9:15 PM CDT
Astronomical Twilight 5:34 AM CDT 9:55 PM CDT
Moon No Moon Rise 9:01 AM CDT (3/30)
Length of Visible Light 13h 48m
Length of Day
12h 45m
Waning Gibbous, 86% of the Moon is Illuminated
Mar 30
Waning Gibbous
Apr 2
Last Quarter
Apr 10
New
Apr 18
First Quarter
Apr 25
Full

Hourly Weather History & Observations

Time (CDT) Temp. Windchill Dew Point Humidity Pressure Visibility Wind Dir Wind Speed Gust Speed Precip Events Conditions
12:15 AM 26.6 °F 20.0 °F 26.6 °F 100% 29.97 in 3.0 mi West 5.8 mph - N/A   Clear
12:35 AM 24.8 °F 16.1 °F 24.8 °F 100% 29.97 in 2.5 mi NW 8.1 mph - N/A   Clear
12:55 AM 24.8 °F 17.9 °F 24.8 °F 100% 29.97 in 2.5 mi WNW 5.8 mph - N/A   Clear
1:15 AM 24.8 °F 16.9 °F 24.8 °F 100% 29.96 in 2.0 mi WNW 6.9 mph - N/A   Clear
1:35 AM 26.6 °F 16.8 °F 26.6 °F 100% 29.96 in 3.0 mi WNW 10.4 mph - N/A   Clear
1:55 AM 24.8 °F 15.3 °F 24.8 °F 100% 29.96 in 2.0 mi WNW 9.2 mph - N/A   Clear
2:15 AM 23.0 °F 13.9 °F 23.0 °F 100% 29.97 in 0.2 mi NW 8.1 mph - N/A Fog Light Freezing Fog
2:35 AM 24.8 °F 20.5 °F 24.8 °F 100% 29.97 in 0.2 mi NW 3.5 mph - N/A Fog Light Freezing Fog
2:55 AM 24.8 °F 19.1 °F 24.8 °F 100% 29.97 in 0.2 mi WSW 4.6 mph - N/A Fog Light Freezing Fog
3:15 AM 23.0 °F 15.8 °F 23.0 °F 100% 29.97 in 0.2 mi West 5.8 mph - N/A Fog Light Freezing Fog
3:35 AM 23.0 °F 13.1 °F 23.0 °F 100% 29.97 in 0.8 mi WNW 9.2 mph - N/A   Overcast
3:55 AM 21.2 °F 11.7 °F 21.2 °F 100% 29.97 in 0.2 mi West 8.1 mph - N/A Fog Light Freezing Fog
4:15 AM 21.2 °F 13.6 °F 21.2 °F 100% 29.97 in 0.2 mi West 5.8 mph - N/A Fog Light Freezing Fog
4:35 AM 23.0 °F 13.1 °F 23.0 °F 100% 29.97 in 0.2 mi WNW 9.2 mph - N/A Fog Light Freezing Fog
4:55 AM 23.0 °F 18.4 °F 23.0 °F 100% 29.97 in 0.2 mi WNW 3.5 mph - N/A Fog Light Freezing Fog
5:15 AM 24.8 °F 16.9 °F 24.8 °F 100% 29.97 in 0.2 mi WNW 6.9 mph - N/A Fog Light Freezing Fog
5:35 AM 24.8 °F 16.1 °F 24.8 °F 100% 29.97 in 0.2 mi NW 8.1 mph - N/A Fog Light Freezing Fog
5:55 AM 26.6 °F 19.1 °F 26.6 °F 100% 29.97 in 0.2 mi WNW 6.9 mph - N/A Fog Light Freezing Fog
6:15 AM 26.6 °F 16.8 °F 26.6 °F 100% 29.97 in 0.2 mi WNW 10.4 mph - N/A Fog Light Freezing Fog
6:35 AM 26.6 °F 15.7 °F 26.6 °F 100% 29.97 in 0.2 mi WNW 12.7 mph - N/A Fog Light Freezing Fog
6:55 AM 26.6 °F 17.5 °F 26.6 °F 100% 29.97 in 0.2 mi WNW 9.2 mph - N/A Fog Light Freezing Fog
7:15 AM 28.4 °F 19.7 °F 28.4 °F 100% 29.97 in 0.2 mi West 9.2 mph - N/A Fog Light Freezing Fog
7:35 AM 28.4 °F 18.0 °F 28.4 °F 100% 29.97 in 0.2 mi West 12.7 mph - N/A Fog Light Freezing Fog
7:55 AM 26.6 °F 16.8 °F 26.6 °F 100% 29.98 in 0.2 mi WNW 10.4 mph - N/A Fog Light Freezing Fog
8:15 AM 26.6 °F 17.5 °F 26.6 °F 100% 29.98 in 0.2 mi WNW 9.2 mph - N/A Fog Light Freezing Fog
8:35 AM 24.8 °F 11.9 °F 24.8 °F 100% 29.99 in 0.2 mi WNW 16.1 mph - N/A Fog Light Freezing Fog
8:55 AM 24.8 °F 12.4 °F 24.8 °F 100% 29.99 in 0.2 mi WNW 15.0 mph - N/A Fog Light Freezing Fog
9:15 AM 24.8 °F 14.0 °F 24.8 °F 100% 30.00 in 0.2 mi WNW 11.5 mph - N/A Fog Light Freezing Fog
9:35 AM 24.8 °F 13.4 °F 24.8 °F 100% 30.00 in 0.2 mi WNW 12.7 mph - N/A Fog Light Freezing Fog
9:55 AM 24.8 °F 14.0 °F 24.8 °F 100% 30.00 in 0.2 mi NW 11.5 mph 17.3 mph N/A Fog Light Freezing Fog
10:15 AM 24.8 °F 15.3 °F 24.8 °F 100% 29.99 in 0.2 mi WNW 9.2 mph - N/A Fog Light Freezing Fog
10:35 AM 24.8 °F 14.0 °F 24.8 °F 100% 30.00 in 0.2 mi WNW 11.5 mph - N/A Fog Light Freezing Fog
10:55 AM 24.8 °F 13.4 °F 24.8 °F 100% 30.00 in 0.2 mi WNW 12.7 mph - N/A Fog Light Freezing Fog
11:15 AM 24.8 °F 12.9 °F 24.8 °F 100% 30.00 in 0.2 mi WNW 13.8 mph - N/A Fog Light Freezing Fog
11:35 AM 24.8 °F 14.6 °F 24.8 °F 100% 30.01 in 1.5 mi WNW 10.4 mph - N/A   Overcast
11:55 AM 26.6 °F 15.2 °F 26.6 °F 100% 30.00 in 3.0 mi WNW 13.8 mph - N/A   Overcast
12:15 PM 26.6 °F 15.2 °F 26.6 °F 100% 30.01 in 5.0 mi NW 13.8 mph - N/A   Scattered Clouds
12:35 PM 28.4 °F 17.0 °F 28.4 °F 100% 30.01 in 5.0 mi NW 15.0 mph - N/A   Mostly Cloudy
12:55 PM 28.4 °F 18.0 °F 28.4 °F 100% 30.00 in 5.0 mi NW 12.7 mph - N/A   Scattered Clouds
1:15 PM 28.4 °F 18.0 °F 28.4 °F 100% 30.00 in 7.0 mi WNW 12.7 mph - N/A   Partly Cloudy
1:35 PM 28.4 °F 19.1 °F 28.4 °F 100% 30.00 in 7.0 mi NW 10.4 mph - N/A   Scattered Clouds
1:55 PM 30.2 °F 23.4 °F 30.2 °F 100% 30.00 in 6.0 mi NW 6.9 mph - N/A   Scattered Clouds
2:15 PM 30.2 °F 21.9 °F 30.2 °F 100% 29.99 in 7.0 mi WNW 9.2 mph - N/A   Clear
2:35 PM 32.0 °F 23.0 °F 30.2 °F 93% 29.99 in 8.0 mi WNW 11.5 mph - N/A   Clear
2:55 PM 32.0 °F 24.2 °F 30.2 °F 93% 29.98 in 8.0 mi WNW 9.2 mph - N/A   Clear
3:15 PM 32.0 °F 23.6 °F 30.2 °F 93% 29.98 in 9.0 mi WNW 10.4 mph - N/A   Clear
3:35 PM 32.0 °F 23.0 °F 28.4 °F 87% 29.98 in 9.0 mi WNW 11.5 mph - N/A   Clear
3:55 PM 32.0 °F 22.5 °F 30.2 °F 93% 29.98 in 9.0 mi WNW 12.7 mph - N/A   Clear
4:15 PM 32.0 °F 22.5 °F 30.2 °F 93% 29.98 in 8.0 mi WNW 12.7 mph - N/A   Clear
4:35 PM 32.0 °F 21.6 °F 30.2 °F 93% 29.99 in 9.0 mi NW 15.0 mph - N/A   Clear
4:55 PM 32.0 °F 22.5 °F 30.2 °F 93% 29.98 in 10.0 mi NW 12.7 mph - N/A   Mostly Cloudy
5:15 PM 32.0 °F 22.1 °F 30.2 °F 93% 29.98 in 10.0 mi NW 13.8 mph - N/A   Overcast
5:35 PM 32.0 °F 22.5 °F 30.2 °F 93% 29.98 in 10.0 mi WNW 12.7 mph - N/A   Mostly Cloudy
5:55 PM 32.0 °F 23.0 °F 32.0 °F 100% 29.98 in 1.2 mi WNW 11.5 mph - 0.02 in Snow Light Snow
6:15 PM 32.0 °F 24.8 °F 32.0 °F 100% 29.97 in 4.0 mi WNW 8.1 mph - N/A Snow Light Snow
6:35 PM 32.0 °F 24.8 °F 32.0 °F 100% 29.95 in 5.0 mi SW 8.1 mph - N/A   Overcast
6:55 PM 32.0 °F 24.8 °F 32.0 °F 100% 29.95 in 6.0 mi WSW 8.1 mph - N/A   Scattered Clouds
7:15 PM 32.0 °F 24.2 °F 32.0 °F 100% 29.94 in 6.0 mi WSW 9.2 mph - N/A   Clear
7:35 PM 32.0 °F 23.0 °F 32.0 °F 100% 29.93 in 6.0 mi WSW 11.5 mph - N/A   Scattered Clouds
7:55 PM 32.0 °F 23.0 °F 32.0 °F 100% 29.93 in 5.0 mi WSW 11.5 mph - N/A   Mostly Cloudy
8:15 PM 32.0 °F 22.5 °F 32.0 °F 100% 29.92 in 6.0 mi West 12.7 mph - N/A   Partly Cloudy
8:35 PM 32.0 °F 23.0 °F 32.0 °F 100% 29.92 in 9.0 mi West 11.5 mph - N/A   Clear
8:55 PM 32.0 °F 22.5 °F 32.0 °F 100% 29.92 in 10.0 mi West 12.7 mph - N/A   Clear
9:15 PM 32.0 °F 22.1 °F 32.0 °F 100% 29.92 in 10.0 mi West 13.8 mph 18.4 mph N/A   Clear
9:35 PM 32.0 °F 21.6 °F 32.0 °F 100% 29.92 in 10.0 mi WNW 15.0 mph 19.6 mph N/A   Clear
9:55 PM 32.0 °F 19.5 °F 30.2 °F 93% 29.92 in 10.0 mi WNW 21.9 mph 27.6 mph N/A   Clear
10:15 PM 32.0 °F 19.8 °F 28.4 °F 87% 29.93 in 10.0 mi WNW 20.7 mph - N/A   Clear
10:35 PM 32.0 °F 20.1 °F 26.6 °F 80% 29.94 in 10.0 mi WNW 19.6 mph 26.5 mph N/A   Clear
10:55 PM 30.2 °F 17.1 °F 26.6 °F 86% 29.94 in 10.0 mi WNW 21.9 mph 26.5 mph N/A   Clear
11:15 PM 30.2 °F 16.8 °F 26.6 °F 86% 29.94 in 10.0 mi NW 23.0 mph 29.9 mph N/A   Clear
11:35 PM 28.4 °F 14.4 °F 26.6 °F 93% 29.95 in 10.0 mi NW 23.0 mph 27.6 mph N/A   Clear
11:55 PM 28.4 °F 15.1 °F 26.6 °F 93% 29.95 in 10.0 mi WNW 20.7 mph - N/A   Clear